• Join FlightAware (Why Join?)
  • Login
  • US Flag GB Flag 
01:24 EST


 

Airport Tracker/Info


-or-


 

Live Flight TrackerFlight Track Log ✈ UAL4295 ✈ 22-Apr-2013 ✈ KEWR - KMCI

Flight Track Log - Related Links

Times and Time Zones

All times are in EDT time to prevent confusion due to time zone crossing. See the UAL4295 flight status page for this flight to view local times or setup timezone preferences in your user account.

Time Position Orientation Groundspeed Altitude Reporting Facility
EDT Latitude Longitude Course Direction KTS MPH feet Rate Location/Type
20:34 40.7333 -74.1333 294° West 171 197 2,000  Level New York TRACON
20:35 40.7833 -74.1167 14° North 250 288 3,600 1,980 Climbing New York TRACON
20:36 40.8333 -74.1833 315° West 267 307 6,000 2,520 Climbing New York TRACON
20:37 40.7485 -74.6829 277° West  Level FlightAware Approximate
20:37 40.8833 -74.2500 315° West 271 312 8,700  Level New York TRACON
20:38 40.7590 -74.8168 276° West  Level FlightAware Approximate
20:38 40.9000 -74.3333 285° West 269 310 10,600  Level New York TRACON
20:39 40.7771 -74.9481 294° West  Level FlightAware Approximate
20:39 40.8833 -74.4500 259° West 307 353 11,500  Level New York TRACON
20:41 40.8503 -74.7050 260° West 332 382 14,300 1,200 Climbing New York Center
20:42 40.8381 -74.8167 262° West 340 391 15,400 1,140 Climbing New York Center
20:43 40.8228 -74.9556 262° West 350 403 16,600 1,200 Climbing New York Center
20:44 40.8078 -75.0864 261° West 350 403 17,900 840 Climbing New York Center
20:45 40.7925 -75.2142 261° West 355 409 18,300 720 Climbing New York Center
20:46 40.7708 -75.3444 258° West 360 414 19,400 1,080 Climbing New York Center
20:47 40.7347 -75.4678 249° West 370 426 20,500 960 Climbing New York Center
20:48 40.6881 -75.5933 244° Southwest 376 433 21,400 1,140 Climbing New York Center
20:49 40.6414 -75.7158 243° Southwest 381 438 22,800 1,320 Climbing New York Center
20:50 40.5967 -75.8356 244° Southwest 374 430 24,100 1,260 Climbing New York Center
20:51 40.5478 -75.9578 242° Southwest 374 430 25,400 1,620 Climbing New York Center
20:52 40.5053 -76.0692 243° Southwest 369 425 27,300 1,260 Climbing New York Center
20:53 40.4628 -76.1778 243° Southwest 354 407 28,000 1,020 Climbing New York Center
20:54 40.4244 -76.2864 245° Southwest 342 394 29,400 1,440 Climbing New York Center
20:55 40.3842 -76.3869 242° Southwest 330 380 31,000 1,380 Climbing New York Center
20:56 40.3483 -76.4819 244° Southwest 316 364 32,200 1,080 Climbing New York Center
20:57 40.3083 -76.5794 242° Southwest 310 357 33,200 960 Climbing New York Center
20:58 40.2681 -76.6767 242° Southwest 305 351 34,200 960 Climbing New York Center
20:59 40.2297 -76.7714 242° Southwest 300 345 35,200 840 Climbing New York Center
21:00 40.1917 -76.8658 242° Southwest 295 339 36,000 360 Climbing New York Center
21:01 40.1531 -76.9658 243° Southwest 305 351 36,000  Level New York Center
21:02 40.1169 -77.0550 242° Southwest 305 351 36,000  Level New York Center
21:03 40.0717 -77.1647 242° Southwest 325 374 36,000  Level New York Center
21:05 40.0000 -77.3417 242° Southwest 360 414 36,000  Level Cleveland Center
21:06 39.9597 -77.4628 247° West 360 414 36,000  Level Cleveland Center
21:07 39.9614 -77.6036 271° West 365 420 36,000  Level Cleveland Center
21:08 39.9650 -77.7469 272° West 382 440 36,000  Level Cleveland Center
21:09 39.9706 -77.8875 273° West 391 450 36,000  Level Cleveland Center
21:10 39.9742 -78.0447 272° West 391 450 36,000  Level Cleveland Center
21:11 39.9831 -78.1661 275° West 391 450 36,000  Level Cleveland Center
21:12 39.9864 -78.3233 272° West 391 450 36,000  Level Cleveland Center
21:13 39.9911 -78.4614 273° West 391 450 36,000  Level Cleveland Center
21:14 39.9958 -78.6022 273° West 386 444 36,000  Level Cleveland Center
21:15 40.0003 -78.7428 272° West 386 444 36,000  Level Cleveland Center
21:16 40.0044 -78.8836 272° West 386 444 36,000  Level Cleveland Center
21:17 40.0128 -79.0272 274° West 386 444 36,000  Level Cleveland Center
21:18 40.0167 -79.1681 272° West 391 450 36,000  Level Cleveland Center
21:19 40.0206 -79.3089 272° West 391 450 36,000  Level Cleveland Center
21:20 40.0261 -79.4553 273° West 397 457 36,000  Level Cleveland Center
21:21 40.0275 -79.6044 271° West 407 468 36,000  Level Cleveland Center
21:22 40.0328 -79.7506 273° West 407 468 36,000  Level Cleveland Center
21:23 40.0358 -79.8944 272° West 407 468 36,000  Level Cleveland Center
21:24 40.0389 -80.0408 272° West 407 468 36,000  Level Cleveland Center
21:25 40.0436 -80.1872 272° West 401 461 36,000  Level Cleveland Center
21:26 40.0461 -80.3336 271° West 401 461 36,000  Level Cleveland Center
21:27 40.0483 -80.4800 271° West 401 461 36,000  Level Cleveland Center
21:28 40.0483 -80.6264 270° West 401 461 36,000  Level Cleveland Center
21:29 40.0525 -80.7731 272° West 401 461 36,000  Level Cleveland Center
21:31 40.0525 -81.0644 270° West 408 470 36,000  Level Indianapolis Center
21:32 40.0544 -81.2131 271° West 406 467 36,000  Level Indianapolis Center
21:33 40.0556 -81.3636 271° West 410 472 36,000  Level Indianapolis Center
21:34 40.0575 -81.5125 271° West 407 468 36,000  Level Indianapolis Center
21:35 40.0592 -81.6639 271° West 412 474 36,000  Level Indianapolis Center
21:36 40.0592 -81.8206 270° West 407 468 36,000  Level Indianapolis Center
21:37 40.0608 -81.9700 271° West 408 470 36,000  Level Indianapolis Center
21:38 40.0617 -82.1194 270° West 410 472 36,000  Level Indianapolis Center
21:39 40.0614 -82.2689 270° West 408 470 36,000  Level Indianapolis Center
21:40 40.0617 -82.4164 270° West 406 467 36,000  Level Indianapolis Center
21:41 40.0619 -82.5908 270° West 408 470 36,000  Level Indianapolis Center
21:42 40.0608 -82.7389 269° West 408 470 36,000  Level Indianapolis Center
21:43 40.0611 -82.8867 270° West 405 466 36,000  Level Indianapolis Center
21:44 40.0603 -83.0336 270° West 403 464 36,000  Level Indianapolis Center
21:45 40.0603 -83.1756 270° West 392 451 36,000  Level Indianapolis Center
21:46 40.0583 -83.3181 269° West 391 450 36,000  Level Indianapolis Center
21:47 40.0578 -83.4606 270° West 394 453 36,000  Level Indianapolis Center
21:48 40.0567 -83.6028 269° West 394 453 36,000 -60 Level Indianapolis Center
21:49 40.0553 -83.7461 269° West 397 457 35,900  Descending Indianapolis Center
21:50 40.0533 -83.8906 269° West 398 458 36,000  Climbing Indianapolis Center
21:51 40.0514 -84.0575 269° West 396 456 36,000  Level Indianapolis Center
21:52 40.0497 -84.2044 269° West 402 463 36,000  Level Indianapolis Center
21:53 40.0475 -84.3536 269° West 408 470 36,000  Level Indianapolis Center
21:54 40.0453 -84.5033 269° West 410 472 36,000  Level Indianapolis Center
21:55 40.0408 -84.6472 268° West 397 457 36,000  Level Indianapolis Center
21:56 40.0392 -84.7878 269° West 386 444 36,000  Level Indianapolis Center
21:57 40.0364 -84.9292 269° West 387 445 36,000  Level Indianapolis Center
21:58 40.0347 -85.0722 269° West 391 450 36,000  Level Indianapolis Center
21:59 40.0292 -85.2147 267° West 392 451 36,000  Level Indianapolis Center
22:01 40.0228 -85.4981 268° West 391 450 36,000  Level Chicago Center
22:02 40.0189 -85.6383 268° West 389 448 36,000  Level Chicago Center
22:04 40.0128 -85.8081 267° West 390 449 36,000  Level Indianapolis Center
22:05 40.0086 -85.9608 268° West 394 453 36,000  Level Indianapolis Center
22:06 40.0047 -86.1075 268° West 402 463 36,000  Level Indianapolis Center
22:07 40.0011 -86.2431 268° West 398 458 36,000  Level Chicago Center
22:08 39.9967 -86.3847 268° West 393 452 36,000  Level Chicago Center
22:09 39.9908 -86.5278 267° West 394 453 36,000  Level Chicago Center
22:10 39.9858 -86.6833 268° West 402 463 36,000  Level Indianapolis Center
22:11 39.9806 -86.8269 267° West 398 458 36,000  Level Indianapolis Center
22:12 39.9756 -86.9714 267° West 397 457 36,000  Level Indianapolis Center
22:13 39.9681 -87.1464 267° West 402 463 36,000  Level Indianapolis Center
22:14 39.9622 -87.2875 267° West 394 453 36,000  Level Indianapolis Center
22:15 39.9561 -87.4289 267° West 392 451 36,000  Level Indianapolis Center
22:16 39.9500 -87.5744 267° West 399 459 36,000  Level Indianapolis Center
22:17 39.9433 -87.7175 267° West 398 458 36,000  Level Indianapolis Center
22:18 39.9378 -87.8528 267° West 383 441 36,000  Level Indianapolis Center
22:19 39.9336 -87.9747 267° West 371 427 36,000  Level Chicago Center
22:20 39.9267 -88.1125 266° West 376 433 36,000  Level Chicago Center
22:21 39.9203 -88.2494 267° West 379 436 36,000  Level Chicago Center
22:22 39.9117 -88.3881 265° West 380 437 36,000  Level Kansas City Center
22:23 39.9042 -88.5283 266° West 384 442 36,000 -60 Level Kansas City Center
22:24 39.8978 -88.6667 267° West 385 443 35,900 -540 Descending Kansas City Center
22:25 39.8897 -88.8047 266° West 384 442 35,000 -960 Descending Kansas City Center
22:26 39.8822 -88.9392 266° West 376 433 34,000 -540 Descending Kansas City Center
22:27 39.8756 -89.0739 266° West 374 430 34,000  Level Kansas City Center
22:28 39.8650 -89.2394 265° West 380 437 34,000  Level Kansas City Center
22:29 39.8578 -89.3814 266° West 388 447 34,000  Level Kansas City Center
22:30 39.8492 -89.5264 266° West 396 456 34,000  Level Kansas City Center
22:31 39.8392 -89.6697 265° West 397 457 34,000  Level Kansas City Center
22:32 39.8406 -89.8072 271° West 386 444 34,000  Level Kansas City Center
22:33 39.8422 -89.9483 271° West 386 444 34,000  Level Kansas City Center
22:34 39.8425 -90.0897 270° West 388 447 34,000  Level Kansas City Center
22:35 39.8436 -90.2308 271° West 390 449 34,000  Level Kansas City Center
22:36 39.8453 -90.3711 271° West 388 447 34,000  Level Kansas City Center
22:37 39.8458 -90.5133 270° West 390 449 34,000  Level Kansas City Center
22:38 39.8478 -90.6547 271° West 390 449 34,000  Level Kansas City Center
22:39 39.8475 -90.7947 270° West 389 448 34,000  Level Kansas City Center
22:40 39.8481 -90.9347 270° West 387 445 34,000  Level Kansas City Center
22:41 39.8483 -91.0883 270° West 386 444 34,000  Level Kansas City Center
22:42 39.8483 -91.2261 270° West 384 442 34,000  Level Kansas City Center
22:43 39.8428 -91.3631 267° West 383 441 34,000  Level Kansas City Center
22:44 39.8306 -91.5017 263° West 385 443 34,000  Level Kansas City Center
22:45 39.8208 -91.6386 265° West 384 442 34,000  Level Kansas City Center
22:46 39.8100 -91.7767 264° West 387 445 34,000  Level Kansas City Center
22:47 39.8011 -91.9111 265° West 380 437 34,000  Level Kansas City Center
22:48 39.7869 -92.0750 264° West 381 438 34,000  Level Kansas City Center
22:49 39.7781 -92.2042 265° West 368 423 34,000  Level Kansas City Center
22:50 39.7675 -92.3289 264° West 354 407 34,000  Level Kansas City Center
22:51 39.7567 -92.4561 264° West 353 406 34,000  Level Kansas City Center
22:52 39.7464 -92.5817 264° West 354 407 34,000  Level Kansas City Center
22:53 39.7353 -92.7097 264° West 355 409 34,000 -240 Level Kansas City Center
22:54 39.7244 -92.8408 264° West 362 417 33,600 -1,260 Descending Kansas City Center
22:55 39.7125 -92.9658 263° West 356 410 31,600 -2,040 Descending Kansas City Center
22:56 39.7017 -93.0892 264° West 347 399 29,600 -1,920 Descending Kansas City Center
22:57 39.6914 -93.2186 264° West 357 411 27,700 -1,920 Descending Kansas City Center
22:58 39.6781 -93.3511 263° West 368 423 25,700 -2,100 Descending Kansas City Center
23:00 39.6636 -93.5067 263° West 367 422 23,500 -2,100 Descending Kansas City Center
23:01 39.6522 -93.6314 263° West 352 405 21,500 -2,280 Descending Kansas City Center
23:02 39.6419 -93.7481 264° West 323 372 19,000 -2,400 Descending Kansas City Center
23:03 39.6331 -93.8542 264° West 311 358 16,700 -2,280 Descending Kansas City Center
23:04 39.5919 -93.9506 241° Southwest 322 371 14,300 -2,220 Descending Kansas City Center
23:05 39.5372 -94.0589 237° Southwest 322 371 12,200 -1,440 Descending Kansas City Center
23:06 39.4911 -94.1497 237° Southwest 316 364 11,500 -1,080 Descending Kansas City Center
23:07 39.4447 -94.2378 236° Southwest 310 357 10,100 -840 Descending Kansas City Center
23:08 39.3992 -94.3297 237° Southwest 264 304 9,800 -600 Descending Kansas City Center
23:09 39.3653 -94.3989 238° Southwest 240 276 8,900 -1,020 Descending Kansas City Center
23:10 39.3281 -94.4706 236° Southwest 249 287 7,800 -1,200 Descending Kansas City Center
23:11 39.2886 -94.5486 237° Southwest 234 269 6,600 -900 Descending Kansas City Center
23:12 39.2439 -94.6028 223° Southwest 228 262 6,000 -780 Descending Kansas City Center
23:13 39.2039 -94.6542 225° Southwest 211 243 5,000 -1,020 Descending Kansas City Center